Satellite: HAWKSAT1
Catalog number: 35003
Epoch time:      09210.79950243
Element set:      61
Inclination:      040.4706 deg
RA of node:       345.2361 deg
Eccentricity:    0.0026605
Arg of perigee:   125.0399 deg
Mean anomaly:     235.2916 deg
Mean motion:   15.39977316 rev/day
Decay rate:      1.470e-05 rev/day^2
Epoch rev:            1092
Checksum:              274

Satellite: CP6
Catalog number: 35004
Epoch time:      09210.72519673
Element set:      55
Inclination:      040.4624 deg
RA of node:       345.4901 deg
Eccentricity:    0.0026246
Arg of perigee:   126.1461 deg
Mean anomaly:     234.1785 deg
Mean motion:   15.40311012 rev/day
Decay rate:      3.425e-05 rev/day^2
Epoch rev:            1090
Checksum:              247

Satellite: AEROCUB3
Catalog number: 35005
Epoch time:      09211.51164573
Element set:      56
Inclination:      040.4756 deg
RA of node:       340.9725 deg
Eccentricity:    0.0025865
Arg of perigee:   129.2521 deg
Mean anomaly:     231.0580 deg
Mean motion:   15.40150016 rev/day
Decay rate:      3.461e-05 rev/day^2
Epoch rev:            1102
Checksum:              244

/EX





More information about the Keps mailing list